Regional Weather Roundup
Issued by NWS

Home | Current Version | Previous Version | Graphics & Text | Print | Product List | Glossary On
Versions: 1 2 3 4 5 6 7 8 9 10 11 12 13 14 15 16 17 18 19 20 21 22 23 24 25 26 27 28 29 30 31 32 33 34 35 36 37 38 39 40 41 42 43 44 45 46 47 48 49 50
000
ASUS43 KIND 231859
RWRIN

WEATHER ROUNDUP FOR INDIANA
NATIONAL WEATHER SERVICE INDIANAPOLIS IN
300 PM EDT WED JUL 23 2014

NOTE: "FAIR" INDICATES FEW OR NO CLOUDS BELOW 12,000 FEET WITH NO
SIGNIFICANT WEATHER AND/OR OBSTRUCTIONS TO VISIBILITY.

* - STATION DOES NOT REPORT WEATHER SUCH AS PRECIPITATION OR FOG.

+ - STATION NOT QUALITY CONTROLLED BY THE NATIONAL WEATHER SERVICE.
    USE DATA WITH CAUTION...ESPECIALLY DEWPOINT AND RELATIVE
    HUMIDITY OBSERVATIONS.

INZ001>003-010>013-019-020-232000-
NORTHWEST INDIANA

CITY           SKY/WX    TMP DP  RH WIND       PRES   REMARKS
GARY /AIRPORT/ MOSUNNY   70  59  68 N14G28    30.15F
KNOX *+        MOSUNNY   72  59  63 N16G23    30.09F
MONTICELLO +   SUNNY     75  63  65 N14G21    30.05F
VALPARAISO     SUNNY     68  57  68 N15G25    30.12F

$$

LMZ046-743>745-232000-
SOUTHERN LAKE MICHIGAN

STATION/POSITION TIME  TEMP WIND        PRES
                       AIR  DIR/SP/G
                 (UTC) (F)  (DEG/KT/KT) (MB)
BURNS HARBOR     1800   63   10/ 18/ 22 1021.0
MICHIGAN CITY    1800   63  350/ 20/ 23   N/A

$$

INZ004-005-014>016-021>024-232000-
NORTH CENTRAL INDIANA

CITY           SKY/WX    TMP DP  RH WIND       PRES   REMARKS
ELKHART        MOSUNNY   73  55  53 NW7G16    30.08F
GOSHEN         PTSUNNY   73  60  63 N10       30.07F
SOUTH BEND     MOSUNNY   74  59  59 NW16G23   30.09F
WARSAW +       PTSUNNY   72  61  68 NE9       30.07F

$$

INZ006>009-017-018-025>027-232000-
NORTHEAST INDIANA

CITY           SKY/WX    TMP DP  RH WIND       PRES   REMARKS
ANGOLA *+      PTSUNNY   75  59  57 N8        30.06F
FORT WAYNE     CLOUDY    70  64  81 N12       30.06F

$$

INZ028-029-035-036-043>045-051>053-232000-
WEST CENTRAL INDIANA

CITY           SKY/WX    TMP DP  RH WIND       PRES   REMARKS
GREENCASTLE +  CLOUDY    70  68  94 N12       30.05F
LAFAYETTE      MOSUNNY   77  62  59 N12G21    30.06F
TERRE HAUTE    CLOUDY    71  67  87 N8        30.05F

$$

INZ030>032-037>040-046>048-054>057-064-065-232000-
CENTRAL INDIANA

CITY           SKY/WX    TMP DP  RH WIND       PRES   REMARKS
ANDERSON       CLOUDY    73  68  83 NW12      30.05F
COLUMBUS       PTSUNNY   81  72  74 W5        30.01F
INDIANAPOLIS   CLOUDY    75  69  81 N8        30.03F
-EAGLE CREEK   LGT RAIN  72  69  90 NW9       30.04F
KOKOMO *+      CLOUDY    73  66  78 N12       30.05F
MT COMFORT *+  CLOUDY    73  73 100 N7        30.04F
SHELBYVILLE    CLOUDY    77  70  79 N9        30.02F

$$

INZ033-034-041-042-049-050-058-059-232000-
EAST CENTRAL INDIANA

CITY           SKY/WX    TMP DP  RH WIND       PRES   REMARKS
MUNCIE         CLOUDY    75  68  78 N10       30.04F

$$

INZ060-061-067>069-081>083-085>088-232000-
SOUTHWEST INDIANA

CITY           SKY/WX    TMP DP  RH WIND       PRES   REMARKS
EVANSVILLE     PTSUNNY   81  68  64 NW7       30.02F
HUNTINGBURG *+ CLOUDY    81  70  69 W5        30.02S

$$

INZ062-063-066-070>080-084-089>092-232000-
SOUTH CENTRAL AND SOUTHEAST INDIANA

CITY           SKY/WX    TMP DP  RH WIND       PRES   REMARKS
BLOOMINGTON    CLOUDY    76  69  79 W6        30.02F

$$



USA.gov is the U.S. government's official web portal to all federal, state and local government web resources and services.